contact:dominique.lefevre@mio.osupytheas.fr, maurice.libes@osupytheas.fr, didier.mallarino@osupytheas.fr
Project:EMSO http://www.emso-fr.org/EMSO-France
Depth: 2436.0 m
Title:EMSO Ligure Ouest : Data MII capteur MICROCAT
DateTime_Computer,Latitude,Longitude,Temperature,Conductivity,Pressure,DateTime_Instrument
DateTime_Computer,Latitude,Longitude,degC,S m-1,dbar,DateTime_Instrument
2021-09-29T00:02:59Z,42.805,6.029,13.2988,4.60007,2470.413,2021-9-29T02:04:21Z
2021-09-29T00:06:02Z,42.805,6.029,13.2983,4.60006,2470.39,2021-9-29T02:07:24Z
2021-09-29T00:09:05Z,42.805,6.029,13.2987,4.60008,2470.39,2021-9-29T02:10:27Z
2021-09-29T00:12:08Z,42.805,6.029,13.2993,4.60007,2470.404,2021-9-29T02:13:30Z
2021-09-29T00:15:11Z,42.805,6.029,13.2989,4.60006,2470.413,2021-9-29T02:16:33Z
2021-09-29T00:18:14Z,42.805,6.029,13.2989,4.60005,2470.404,2021-9-29T02:19:36Z
2021-09-29T00:21:17Z,42.805,6.029,13.2986,4.60008,2470.39,2021-9-29T02:22:39Z
2021-09-29T00:24:20Z,42.805,6.029,13.2987,4.60008,2470.404,2021-9-29T02:25:43Z
2021-09-29T00:27:24Z,42.805,6.029,13.2990,4.60008,2470.413,2021-9-29T02:28:46Z
2021-09-29T00:30:27Z,42.805,6.029,13.2990,4.60008,2470.404,2021-9-29T02:31:49Z
2021-09-29T00:33:30Z,42.805,6.029,13.2990,4.60008,2470.38,2021-9-29T02:34:52Z
2021-09-29T00:36:33Z,42.805,6.029,13.2986,4.60006,2470.38,2021-9-29T02:37:55Z
2021-09-29T00:39:36Z,42.805,6.029,13.2990,4.60008,2470.366,2021-9-29T02:40:58Z
2021-09-29T00:42:39Z,42.805,6.029,13.2986,4.60005,2470.413,2021-9-29T02:44:01Z
2021-09-29T00:45:42Z,42.805,6.029,13.2990,4.60006,2470.366,2021-9-29T02:47:04Z
2021-09-29T00:48:45Z,42.805,6.029,13.2989,4.60005,2470.39,2021-9-29T02:50:08Z
2021-09-29T00:51:49Z,42.805,6.029,13.2988,4.60006,2470.427,2021-9-29T02:53:11Z
2021-09-29T00:54:52Z,42.805,6.029,13.2986,4.60005,2470.427,2021-9-29T02:56:14Z
2021-09-29T00:57:55Z,42.805,6.029,13.2987,4.60004,2470.39,2021-9-29T02:59:17Z
2021-09-29T01:00:58Z,42.805,6.029,13.2992,4.60005,2470.38,2021-9-29T03:02:20Z
2021-09-29T01:04:01Z,42.805,6.029,13.2983,4.60004,2470.39,2021-9-29T03:05:23Z
2021-09-29T01:07:04Z,42.805,6.029,13.2989,4.60006,2470.39,2021-9-29T03:08:26Z
2021-09-29T01:10:07Z,42.805,6.029,13.2988,4.60005,2470.366,2021-9-29T03:11:29Z
2021-09-29T01:13:10Z,42.805,6.029,13.2988,4.60009,2470.39,2021-9-29T03:14:33Z
2021-09-29T01:16:14Z,42.805,6.029,13.2991,4.60007,2470.366,2021-9-29T03:17:36Z
2021-09-29T01:19:17Z,42.805,6.029,13.2991,4.60005,2470.366,2021-9-29T03:20:39Z
2021-09-29T01:22:20Z,42.805,6.029,13.2990,4.60007,2470.39,2021-9-29T03:23:42Z
2021-09-29T01:25:23Z,42.805,6.029,13.2983,4.60008,2470.366,2021-9-29T03:26:45Z
2021-09-29T01:28:26Z,42.805,6.029,13.2990,4.60008,2470.404,2021-9-29T03:29:48Z
2021-09-29T01:31:29Z,42.805,6.029,13.2987,4.60008,2470.39,2021-9-29T03:32:51Z
2021-09-29T01:34:32Z,42.805,6.029,13.2987,4.60006,2470.404,2021-9-29T03:35:54Z
2021-09-29T01:37:35Z,42.805,6.029,13.2991,4.60005,2470.404,2021-9-29T03:38:58Z
2021-09-29T01:40:39Z,42.805,6.029,13.2990,4.60008,2470.413,2021-9-29T03:42:01Z
2021-09-29T01:43:42Z,42.805,6.029,13.2988,4.60006,2470.357,2021-9-29T03:45:04Z
2021-09-29T01:46:45Z,42.805,6.029,13.2993,4.60006,2470.413,2021-9-29T03:48:07Z
2021-09-29T01:49:48Z,42.805,6.029,13.2991,4.60006,2470.366,2021-9-29T03:51:10Z
2021-09-29T01:52:51Z,42.805,6.029,13.2990,4.60006,2470.413,2021-9-29T03:54:13Z
2021-09-29T01:55:54Z,42.805,6.029,13.2983,4.60008,2470.343,2021-9-29T03:57:16Z
2021-09-29T01:58:57Z,42.805,6.029,13.2988,4.60007,2470.366,2021-9-29T04:00:19Z
2021-09-29T02:02:00Z,42.805,6.029,13.2990,4.60005,2470.343,2021-9-29T04:03:23Z
2021-09-29T02:05:04Z,42.805,6.029,13.2992,4.60005,2470.413,2021-9-29T04:06:26Z
2021-09-29T02:08:07Z,42.805,6.029,13.2991,4.60007,2470.366,2021-9-29T04:09:29Z
2021-09-29T02:11:10Z,42.805,6.029,13.2992,4.60005,2470.357,2021-9-29T04:12:32Z
2021-09-29T02:14:13Z,42.805,6.029,13.2985,4.60005,2470.343,2021-9-29T04:15:35Z
2021-09-29T02:17:16Z,42.805,6.029,13.2989,4.60005,2470.366,2021-9-29T04:18:38Z
2021-09-29T02:20:19Z,42.805,6.029,13.2990,4.60007,2470.366,2021-9-29T04:21:41Z
2021-09-29T02:23:22Z,42.805,6.029,13.2986,4.60007,2470.366,2021-9-29T04:24:44Z
2021-09-29T02:26:25Z,42.805,6.029,13.2986,4.60006,2470.38,2021-9-29T04:27:48Z
2021-09-29T02:29:29Z,42.805,6.029,13.2988,4.60009,2470.404,2021-9-29T04:30:51Z
2021-09-29T02:32:32Z,42.805,6.029,13.2989,4.60007,2470.38,2021-9-29T04:33:54Z
2021-09-29T02:35:35Z,42.805,6.029,13.2986,4.60006,2470.38,2021-9-29T04:36:57Z
2021-09-29T02:38:38Z,42.805,6.029,13.2986,4.60006,2470.366,2021-9-29T04:40:00Z
2021-09-29T02:41:41Z,42.805,6.029,13.2986,4.60005,2470.343,2021-9-29T04:43:03Z
2021-09-29T02:44:44Z,42.805,6.029,13.2991,4.60007,2470.404,2021-9-29T04:46:06Z
2021-09-29T02:47:47Z,42.805,6.029,13.2991,4.60008,2470.343,2021-9-29T04:49:09Z
2021-09-29T02:50:50Z,42.805,6.029,13.2986,4.60006,2470.343,2021-9-29T04:52:13Z
2021-09-29T02:53:54Z,42.805,6.029,13.2986,4.60007,2470.404,2021-9-29T04:55:16Z
2021-09-29T02:56:57Z,42.805,6.029,13.2992,4.60008,2470.366,2021-9-29T04:58:19Z
2021-09-29T03:00:00Z,42.805,6.029,13.2989,4.60007,2470.366,2021-9-29T05:01:22Z
2021-09-29T03:03:03Z,42.805,6.029,13.2987,4.60009,2470.343,2021-9-29T05:04:25Z
2021-09-29T03:06:06Z,42.805,6.029,13.2989,4.60006,2470.366,2021-9-29T05:07:28Z
2021-09-29T03:09:09Z,42.805,6.029,13.2988,4.60009,2470.366,2021-9-29T05:10:31Z
2021-09-29T03:12:12Z,42.805,6.029,13.2986,4.60006,2470.343,2021-9-29T05:13:34Z
2021-09-29T03:15:15Z,42.805,6.029,13.2986,4.60006,2470.366,2021-9-29T05:16:37Z
2021-09-29T03:18:18Z,42.805,6.029,13.2987,4.60007,2470.343,2021-9-29T05:19:41Z
2021-09-29T03:21:22Z,42.805,6.029,13.2989,4.60007,2470.38,2021-9-29T05:22:44Z
2021-09-29T03:24:25Z,42.805,6.029,13.2989,4.60009,2470.357,2021-9-29T05:25:47Z
2021-09-29T03:27:28Z,42.805,6.029,13.2988,4.60007,2470.38,2021-9-29T05:28:50Z
2021-09-29T03:30:31Z,42.805,6.029,13.2992,4.60007,2470.366,2021-9-29T05:31:53Z
2021-09-29T03:33:34Z,42.805,6.029,13.2988,4.60006,2470.357,2021-9-29T05:34:56Z
2021-09-29T03:36:37Z,42.805,6.029,13.2988,4.60006,2470.38,2021-9-29T05:37:59Z
2021-09-29T03:39:40Z,42.805,6.029,13.2985,4.60007,2470.366,2021-9-29T05:41:02Z
2021-09-29T03:42:43Z,42.805,6.029,13.2991,4.60008,2470.366,2021-9-29T05:44:06Z
2021-09-29T03:45:47Z,42.805,6.029,13.2990,4.60006,2470.366,2021-9-29T05:47:09Z
2021-09-29T03:48:50Z,42.805,6.029,13.2988,4.60006,2470.357,2021-9-29T05:50:12Z
2021-09-29T03:51:53Z,42.805,6.029,13.2985,4.60009,2470.39,2021-9-29T05:53:15Z
2021-09-29T03:54:56Z,42.805,6.029,13.2991,4.60011,2470.366,2021-9-29T05:56:18Z
2021-09-29T03:57:59Z,42.805,6.029,13.2988,4.60009,2470.38,2021-9-29T05:59:21Z
2021-09-29T04:01:02Z,42.805,6.029,13.2991,4.60007,2470.357,2021-9-29T06:02:24Z
2021-09-29T04:04:05Z,42.805,6.029,13.2992,4.60007,2470.343,2021-9-29T06:05:27Z
2021-09-29T04:07:08Z,42.805,6.029,13.2991,4.60009,2470.343,2021-9-29T06:08:31Z
2021-09-29T04:10:12Z,42.805,6.029,13.2984,4.60008,2470.343,2021-9-29T06:11:34Z
2021-09-29T04:13:15Z,42.805,6.029,13.2984,4.60009,2470.366,2021-9-29T06:14:37Z
2021-09-29T04:16:18Z,42.805,6.029,13.2986,4.60009,2470.334,2021-9-29T06:17:40Z
2021-09-29T04:19:21Z,42.805,6.029,13.2990,4.60008,2470.343,2021-9-29T06:20:43Z
2021-09-29T04:22:24Z,42.805,6.029,13.2991,4.60009,2470.343,2021-9-29T06:23:46Z
2021-09-29T04:25:27Z,42.805,6.029,13.2991,4.60009,2470.343,2021-9-29T06:26:49Z
2021-09-29T04:28:30Z,42.805,6.029,13.2991,4.60009,2470.366,2021-9-29T06:29:52Z
2021-09-29T04:31:33Z,42.805,6.029,13.2993,4.60009,2470.357,2021-9-29T06:32:56Z
2021-09-29T04:34:37Z,42.805,6.029,13.2991,4.60008,2470.38,2021-9-29T06:35:59Z
2021-09-29T04:37:40Z,42.805,6.029,13.2988,4.60009,2470.357,2021-9-29T06:39:02Z
2021-09-29T04:40:43Z,42.805,6.029,13.2990,4.60009,2470.343,2021-9-29T06:42:05Z
2021-09-29T04:43:46Z,42.805,6.029,13.2993,4.60008,2470.357,2021-9-29T06:45:08Z
2021-09-29T04:46:49Z,42.805,6.029,13.2991,4.60009,2470.366,2021-9-29T06:48:11Z
2021-09-29T04:49:52Z,42.805,6.029,13.2990,4.60009,2470.343,2021-9-29T06:51:14Z
2021-09-29T04:52:55Z,42.805,6.029,13.2990,4.60011,2470.343,2021-9-29T06:54:17Z
2021-09-29T04:55:58Z,42.805,6.029,13.2993,4.60010,2470.343,2021-9-29T06:57:21Z
2021-09-29T04:59:01Z,42.805,6.029,13.2990,4.60009,2470.357,2021-9-29T07:00:24Z
2021-09-29T05:02:05Z,42.805,6.029,13.2993,4.60008,2470.334,2021-9-29T07:03:27Z
2021-09-29T05:05:08Z,42.805,6.029,13.2989,4.60009,2470.343,2021-9-29T07:06:30Z
2021-09-29T05:08:11Z,42.805,6.029,13.2991,4.60009,2470.32,2021-9-29T07:09:33Z
2021-09-29T05:11:14Z,42.805,6.029,13.2989,4.60009,2470.32,2021-9-29T07:12:36Z
2021-09-29T05:14:17Z,42.805,6.029,13.2990,4.60009,2470.343,2021-9-29T07:15:39Z
2021-09-29T05:17:20Z,42.805,6.029,13.2990,4.60012,2470.334,2021-9-29T07:18:42Z
2021-09-29T05:20:23Z,42.805,6.029,13.2991,4.60011,2470.366,2021-9-29T07:21:45Z
2021-09-29T05:23:26Z,42.805,6.029,13.2990,4.60009,2470.343,2021-9-29T07:24:49Z
2021-09-29T05:26:30Z,42.805,6.029,13.2991,4.60010,2470.32,2021-9-29T07:27:52Z
2021-09-29T05:29:33Z,42.805,6.029,13.2988,4.60009,2470.38,2021-9-29T07:30:55Z
2021-09-29T05:32:36Z,42.805,6.029,13.2991,4.60009,2470.343,2021-9-29T07:33:58Z
2021-09-29T05:35:39Z,42.805,6.029,13.2994,4.60009,2470.357,2021-9-29T07:37:01Z
2021-09-29T05:38:42Z,42.805,6.029,13.2994,4.60009,2470.32,2021-9-29T07:40:04Z
2021-09-29T05:41:45Z,42.805,6.029,13.2994,4.60009,2470.32,2021-9-29T07:43:07Z
2021-09-29T05:44:48Z,42.805,6.029,13.2996,4.60010,2470.32,2021-9-29T07:46:10Z
2021-09-29T05:47:51Z,42.805,6.029,13.2995,4.60010,2470.334,2021-9-29T07:49:14Z
2021-09-29T05:50:55Z,42.805,6.029,13.2993,4.60010,2470.343,2021-9-29T07:52:17Z
2021-09-29T05:53:58Z,42.805,6.029,13.2991,4.60011,2470.334,2021-9-29T07:55:20Z
2021-09-29T05:57:01Z,42.805,6.029,13.2993,4.60009,2470.32,2021-9-29T07:58:23Z
2021-09-29T06:00:04Z,42.805,6.029,13.2998,4.60010,2470.334,2021-9-29T08:01:26Z
2021-09-29T06:03:07Z,42.805,6.029,13.2995,4.60011,2470.357,2021-9-29T08:04:29Z
2021-09-29T06:06:10Z,42.805,6.029,13.2994,4.60011,2470.32,2021-9-29T08:07:32Z
2021-09-29T06:09:13Z,42.805,6.029,13.2996,4.60011,2470.343,2021-9-29T08:10:35Z
2021-09-29T06:12:16Z,42.805,6.029,13.2993,4.60011,2470.343,2021-9-29T08:13:39Z
2021-09-29T06:15:20Z,42.805,6.029,13.2994,4.60009,2470.343,2021-9-29T08:16:42Z
2021-09-29T06:18:23Z,42.805,6.029,13.2991,4.60011,2470.334,2021-9-29T08:19:45Z
2021-09-29T06:21:26Z,42.805,6.029,13.2993,4.60011,2470.357,2021-9-29T08:22:48Z
2021-09-29T06:24:29Z,42.805,6.029,13.2997,4.60014,2470.32,2021-9-29T08:25:51Z
2021-09-29T06:27:32Z,42.805,6.029,13.2993,4.60010,2470.343,2021-9-29T08:28:54Z
2021-09-29T06:30:35Z,42.805,6.029,13.2996,4.60011,2470.343,2021-9-29T08:31:57Z
2021-09-29T06:33:38Z,42.805,6.029,13.2997,4.60011,2470.334,2021-9-29T08:35:00Z
2021-09-29T06:36:41Z,42.805,6.029,13.2993,4.60011,2470.343,2021-9-29T08:38:04Z
2021-09-29T06:39:45Z,42.805,6.029,13.2991,4.60013,2470.39,2021-9-29T08:41:07Z
2021-09-29T06:42:48Z,42.805,6.029,13.2993,4.60013,2470.343,2021-9-29T08:44:10Z
2021-09-29T06:45:51Z,42.805,6.029,13.2996,4.60014,2470.357,2021-9-29T08:47:13Z
2021-09-29T06:48:54Z,42.805,6.029,13.2993,4.60014,2470.343,2021-9-29T08:50:16Z
2021-09-29T06:51:57Z,42.805,6.029,13.2995,4.60010,2470.366,2021-9-29T08:53:19Z
2021-09-29T06:55:00Z,42.805,6.029,13.2994,4.60011,2470.366,2021-9-29T08:56:22Z
2021-09-29T06:58:03Z,42.805,6.029,13.2993,4.60011,2470.343,2021-9-29T08:59:25Z
2021-09-29T07:01:06Z,42.805,6.029,13.2997,4.60011,2470.343,2021-9-29T09:02:29Z
2021-09-29T07:04:10Z,42.805,6.029,13.2996,4.60014,2470.38,2021-9-29T09:05:32Z
2021-09-29T07:07:13Z,42.805,6.029,13.2996,4.60011,2470.343,2021-9-29T09:08:35Z
2021-09-29T07:10:16Z,42.805,6.029,13.2994,4.60013,2470.297,2021-9-29T09:11:38Z
2021-09-29T07:13:19Z,42.805,6.029,13.2992,4.60014,2470.343,2021-9-29T09:14:41Z
2021-09-29T07:16:22Z,42.805,6.029,13.2996,4.60013,2470.357,2021-9-29T09:17:44Z
2021-09-29T07:19:25Z,42.805,6.029,13.2994,4.60013,2470.334,2021-9-29T09:20:47Z
2021-09-29T07:22:28Z,42.805,6.029,13.2995,4.60011,2470.343,2021-9-29T09:23:50Z
2021-09-29T07:25:31Z,42.805,6.029,13.2995,4.60011,2470.357,2021-9-29T09:26:54Z
2021-09-29T07:28:34Z,42.805,6.029,13.2998,4.60011,2470.343,2021-9-29T09:29:57Z
2021-09-29T07:31:38Z,42.805,6.029,13.2993,4.60010,2470.343,2021-9-29T09:33:00Z
2021-09-29T07:34:41Z,42.805,6.029,13.2993,4.60014,2470.32,2021-9-29T09:36:03Z
2021-09-29T07:37:44Z,42.805,6.029,13.2991,4.60010,2470.343,2021-9-29T09:39:06Z
2021-09-29T07:40:47Z,42.805,6.029,13.2991,4.60009,2470.343,2021-9-29T09:42:09Z
2021-09-29T07:43:50Z,42.805,6.029,13.2996,4.60014,2470.366,2021-9-29T09:45:12Z
2021-09-29T07:46:53Z,42.805,6.029,13.2991,4.60010,2470.357,2021-9-29T09:48:15Z
2021-09-29T07:49:56Z,42.805,6.029,13.2993,4.60008,2470.39,2021-9-29T09:51:19Z
2021-09-29T07:52:59Z,42.805,6.029,13.2995,4.60011,2470.343,2021-9-29T09:54:22Z
2021-09-29T07:56:03Z,42.805,6.029,13.2995,4.60008,2470.343,2021-9-29T09:57:25Z
2021-09-29T07:59:06Z,42.805,6.029,13.2993,4.60008,2470.394,2021-9-29T10:00:28Z
2021-09-29T08:02:09Z,42.805,6.029,13.2992,4.60010,2470.343,2021-9-29T10:03:31Z
2021-09-29T08:05:12Z,42.805,6.029,13.2991,4.60009,2470.334,2021-9-29T10:06:34Z
2021-09-29T08:08:15Z,42.805,6.029,13.2994,4.60009,2470.38,2021-9-29T10:09:37Z
2021-09-29T08:11:18Z,42.805,6.029,13.2992,4.60011,2470.39,2021-9-29T10:12:40Z
2021-09-29T08:14:21Z,42.805,6.029,13.2997,4.60010,2470.357,2021-9-29T10:15:44Z
2021-09-29T08:17:25Z,42.805,6.029,13.2991,4.60010,2470.366,2021-9-29T10:18:47Z
2021-09-29T08:20:28Z,42.805,6.029,13.2991,4.60009,2470.343,2021-9-29T10:21:50Z
2021-09-29T08:23:31Z,42.805,6.029,13.2993,4.60009,2470.343,2021-9-29T10:24:53Z
2021-09-29T08:26:34Z,42.805,6.029,13.2991,4.60011,2470.38,2021-9-29T10:27:56Z
2021-09-29T08:29:37Z,42.805,6.029,13.2990,4.60010,2470.38,2021-9-29T10:30:59Z
2021-09-29T08:32:40Z,42.805,6.029,13.2990,4.60006,2470.39,2021-9-29T10:34:02Z
2021-09-29T08:35:43Z,42.805,6.029,13.2989,4.60006,2470.38,2021-9-29T10:37:05Z
2021-09-29T08:38:46Z,42.805,6.029,13.2991,4.60009,2470.366,2021-9-29T10:40:09Z
2021-09-29T08:41:50Z,42.805,6.029,13.2991,4.60007,2470.38,2021-9-29T10:43:12Z
2021-09-29T08:44:53Z,42.805,6.029,13.2993,4.60009,2470.38,2021-9-29T10:46:15Z
2021-09-29T08:47:56Z,42.805,6.029,13.2991,4.60010,2470.357,2021-9-29T10:49:18Z
2021-09-29T08:50:59Z,42.805,6.029,13.2993,4.60007,2470.413,2021-9-29T10:52:21Z
2021-09-29T08:54:02Z,42.805,6.029,13.2994,4.60008,2470.427,2021-9-29T10:55:24Z
2021-09-29T08:57:05Z,42.805,6.029,13.2991,4.60008,2470.39,2021-9-29T10:58:27Z
2021-09-29T09:00:08Z,42.805,6.029,13.2993,4.60007,2470.39,2021-9-29T11:01:30Z
2021-09-29T09:03:11Z,42.805,6.029,13.2990,4.60006,2470.38,2021-9-29T11:04:34Z
2021-09-29T09:06:15Z,42.805,6.029,13.2990,4.60007,2470.39,2021-9-29T11:07:37Z
2021-09-29T09:09:18Z,42.805,6.029,13.2990,4.60006,2470.39,2021-9-29T11:10:40Z
2021-09-29T09:12:21Z,42.805,6.029,13.2993,4.60007,2470.38,2021-9-29T11:13:43Z
2021-09-29T09:15:24Z,42.805,6.029,13.2987,4.60007,2470.39,2021-9-29T11:16:46Z
2021-09-29T09:18:27Z,42.805,6.029,13.2990,4.60006,2470.38,2021-9-29T11:19:49Z
2021-09-29T09:21:30Z,42.805,6.029,13.2991,4.60006,2470.413,2021-9-29T11:22:52Z
2021-09-29T09:24:33Z,42.805,6.029,13.2991,4.60007,2470.366,2021-9-29T11:25:55Z
2021-09-29T09:27:36Z,42.805,6.029,13.2990,4.60011,2470.38,2021-9-29T11:28:59Z
2021-09-29T09:30:40Z,42.805,6.029,13.2991,4.60006,2470.366,2021-9-29T11:32:02Z
2021-09-29T09:33:43Z,42.805,6.029,13.2988,4.60006,2470.38,2021-9-29T11:35:05Z
2021-09-29T09:36:46Z,42.805,6.029,13.2990,4.60009,2470.39,2021-9-29T11:38:08Z
2021-09-29T09:39:49Z,42.805,6.029,13.2990,4.60007,2470.39,2021-9-29T11:41:11Z
2021-09-29T09:42:52Z,42.805,6.029,13.2989,4.60006,2470.413,2021-9-29T11:44:14Z
2021-09-29T09:45:55Z,42.805,6.029,13.2991,4.60010,2470.413,2021-9-29T11:47:17Z
2021-09-29T09:48:58Z,42.805,6.029,13.2989,4.60008,2470.38,2021-9-29T11:50:21Z
2021-09-29T09:52:01Z,42.805,6.029,13.2989,4.60007,2470.413,2021-9-29T11:53:24Z
2021-09-29T09:55:05Z,42.805,6.029,13.2993,4.60009,2470.427,2021-9-29T11:56:27Z
2021-09-29T09:58:08Z,42.805,6.029,13.2989,4.60005,2470.413,2021-9-29T11:59:30Z
2021-09-29T10:01:11Z,42.805,6.029,13.2987,4.60008,2470.413,2021-9-29T12:02:33Z
2021-09-29T10:04:14Z,42.805,6.029,13.2986,4.60009,2470.437,2021-9-29T12:05:36Z
2021-09-29T10:07:17Z,42.805,6.029,13.2989,4.60009,2470.45,2021-9-29T12:08:39Z
2021-09-29T10:10:20Z,42.805,6.029,13.2990,4.60006,2470.413,2021-9-29T12:11:42Z
2021-09-29T10:13:23Z,42.805,6.029,13.2984,4.60006,2470.404,2021-9-29T12:14:46Z
2021-09-29T10:16:26Z,42.805,6.029,13.2991,4.60007,2470.413,2021-9-29T12:17:49Z
2021-09-29T10:19:30Z,42.805,6.029,13.2990,4.60006,2470.413,2021-9-29T12:20:52Z
2021-09-29T10:22:33Z,42.805,6.029,13.2992,4.60008,2470.39,2021-9-29T12:23:55Z
2021-09-29T10:25:36Z,42.805,6.029,13.2991,4.60006,2470.427,2021-9-29T12:26:58Z
2021-09-29T10:28:39Z,42.805,6.029,13.2987,4.60009,2470.413,2021-9-29T12:30:01Z
2021-09-29T10:31:42Z,42.805,6.029,13.2986,4.60008,2470.45,2021-9-29T12:33:04Z
2021-09-29T10:34:45Z,42.805,6.029,13.2995,4.60006,2470.39,2021-9-29T12:36:07Z
2021-09-29T10:37:48Z,42.805,6.029,13.2991,4.60008,2470.413,2021-9-29T12:39:11Z
2021-09-29T10:40:52Z,42.805,6.029,13.2990,4.60006,2470.39,2021-9-29T12:42:14Z
2021-09-29T10:43:55Z,42.805,6.029,13.2989,4.60008,2470.413,2021-9-29T12:45:17Z
2021-09-29T10:46:58Z,42.805,6.029,13.2992,4.60009,2470.39,2021-9-29T12:48:20Z
2021-09-29T10:50:01Z,42.805,6.029,13.2989,4.60008,2470.413,2021-9-29T12:51:23Z
2021-09-29T10:53:04Z,42.805,6.029,13.2986,4.60009,2470.413,2021-9-29T12:54:26Z
2021-09-29T10:56:07Z,42.805,6.029,13.2991,4.60007,2470.413,2021-9-29T12:57:29Z
2021-09-29T10:59:10Z,42.805,6.029,13.2991,4.60009,2470.413,2021-9-29T13:00:32Z
2021-09-29T11:02:13Z,42.805,6.029,13.2990,4.60009,2470.413,2021-9-29T13:03:36Z
2021-09-29T11:05:17Z,42.805,6.029,13.2988,4.60008,2470.427,2021-9-29T13:06:39Z
2021-09-29T11:08:20Z,42.805,6.029,13.2988,4.60006,2470.437,2021-9-29T13:09:42Z
2021-09-29T11:11:23Z,42.805,6.029,13.2990,4.60009,2470.413,2021-9-29T13:12:45Z
2021-09-29T11:14:26Z,42.805,6.029,13.2993,4.60008,2470.413,2021-9-29T13:15:48Z
2021-09-29T11:17:29Z,42.805,6.029,13.2990,4.60009,2470.45,2021-9-29T13:18:51Z
2021-09-29T11:20:32Z,42.805,6.029,13.2989,4.60010,2470.427,2021-9-29T13:21:54Z
2021-09-29T11:23:35Z,42.805,6.029,13.2991,4.60009,2470.413,2021-9-29T13:24:57Z
2021-09-29T11:26:38Z,42.805,6.029,13.2990,4.60009,2470.427,2021-9-29T13:28:01Z
2021-09-29T11:29:42Z,42.805,6.029,13.2989,4.60008,2470.427,2021-9-29T13:31:04Z
2021-09-29T11:32:45Z,42.805,6.029,13.2991,4.60007,2470.45,2021-9-29T13:34:07Z
2021-09-29T11:35:48Z,42.805,6.029,13.2990,4.60007,2470.45,2021-9-29T13:37:10Z
2021-09-29T11:38:51Z,42.805,6.029,13.2988,4.60010,2470.423,2021-9-29T13:40:13Z
2021-09-29T11:41:54Z,42.805,6.029,13.2990,4.60005,2470.437,2021-9-29T13:43:16Z
2021-09-29T11:44:57Z,42.805,6.029,13.2988,4.60009,2470.427,2021-9-29T13:46:19Z
2021-09-29T11:48:00Z,42.805,6.029,13.2988,4.60008,2470.413,2021-9-29T13:49:22Z
2021-09-29T11:51:03Z,42.805,6.029,13.2987,4.60007,2470.413,2021-9-29T13:52:26Z
2021-09-29T11:54:07Z,42.805,6.029,13.2991,4.60005,2470.437,2021-9-29T13:55:29Z
2021-09-29T11:57:10Z,42.805,6.029,13.2989,4.60004,2470.437,2021-9-29T13:58:32Z
2021-09-29T12:00:13Z,42.805,6.029,13.2991,4.60007,2470.45,2021-9-29T14:01:35Z
2021-09-29T12:03:16Z,42.805,6.029,13.2994,4.60009,2470.437,2021-9-29T14:04:38Z
2021-09-29T12:06:19Z,42.805,6.029,13.2987,4.60004,2470.437,2021-9-29T14:07:41Z
2021-09-29T12:09:22Z,42.805,6.029,13.2989,4.60007,2470.437,2021-9-29T14:10:44Z
2021-09-29T12:12:25Z,42.805,6.029,13.2991,4.60009,2470.437,2021-9-29T14:13:47Z
2021-09-29T12:15:28Z,42.805,6.029,13.2990,4.60006,2470.413,2021-9-29T14:16:51Z
2021-09-29T12:18:32Z,42.805,6.029,13.2990,4.60009,2470.45,2021-9-29T14:19:54Z
2021-09-29T12:21:35Z,42.805,6.029,13.2993,4.60006,2470.45,2021-9-29T14:22:57Z
2021-09-29T12:24:38Z,42.805,6.029,13.2986,4.60009,2470.413,2021-9-29T14:26:00Z
2021-09-29T12:27:41Z,42.805,6.029,13.2989,4.60006,2470.413,2021-9-29T14:29:03Z
2021-09-29T12:30:44Z,42.805,6.029,13.2989,4.60008,2470.45,2021-9-29T14:32:06Z
2021-09-29T12:33:47Z,42.805,6.029,13.2991,4.60009,2470.437,2021-9-29T14:35:09Z
2021-09-29T12:36:50Z,42.805,6.029,13.2991,4.60006,2470.437,2021-9-29T14:38:12Z
2021-09-29T12:39:53Z,42.805,6.029,13.2988,4.60011,2470.437,2021-9-29T14:41:16Z
2021-09-29T12:42:57Z,42.805,6.029,13.2987,4.60007,2470.437,2021-9-29T14:44:19Z
2021-09-29T12:46:00Z,42.805,6.029,13.2990,4.60009,2470.45,2021-9-29T14:47:22Z
2021-09-29T12:49:03Z,42.805,6.029,13.2990,4.60007,2470.45,2021-9-29T14:50:25Z
2021-09-29T12:52:06Z,42.805,6.029,13.2991,4.60005,2470.437,2021-9-29T14:53:28Z
2021-09-29T12:55:09Z,42.805,6.029,13.2986,4.60006,2470.45,2021-9-29T14:56:31Z
2021-09-29T12:58:12Z,42.805,6.029,13.2989,4.60007,2470.413,2021-9-29T14:59:34Z
2021-09-29T13:01:15Z,42.805,6.029,13.2988,4.60007,2470.437,2021-9-29T15:02:37Z
2021-09-29T13:04:18Z,42.805,6.029,13.2990,4.60008,2470.437,2021-9-29T15:05:41Z
2021-09-29T13:07:22Z,42.805,6.029,13.2991,4.60009,2470.437,2021-9-29T15:08:44Z
2021-09-29T13:10:25Z,42.805,6.029,13.2983,4.60009,2470.427,2021-9-29T15:11:47Z
2021-09-29T13:13:28Z,42.805,6.029,13.2987,4.60009,2470.437,2021-9-29T15:14:50Z
2021-09-29T13:16:31Z,42.805,6.029,13.2985,4.60006,2470.413,2021-9-29T15:17:53Z
2021-09-29T13:19:34Z,42.805,6.029,13.2991,4.60009,2470.427,2021-9-29T15:20:56Z
2021-09-29T13:22:37Z,42.805,6.029,13.2990,4.60009,2470.437,2021-9-29T15:23:59Z
2021-09-29T13:25:40Z,42.805,6.029,13.2991,4.60009,2470.45,2021-9-29T15:27:03Z
2021-09-29T13:28:43Z,42.805,6.029,13.2991,4.60008,2470.427,2021-9-29T15:30:06Z
2021-09-29T13:31:47Z,42.805,6.029,13.2990,4.60008,2470.413,2021-9-29T15:33:09Z
2021-09-29T13:34:50Z,42.805,6.029,13.2990,4.60008,2470.437,2021-9-29T15:36:12Z
2021-09-29T13:37:53Z,42.805,6.029,13.2987,4.60007,2470.45,2021-9-29T15:39:15Z
2021-09-29T13:40:56Z,42.805,6.029,13.2991,4.60008,2470.437,2021-9-29T15:42:18Z
2021-09-29T13:43:59Z,42.805,6.029,13.2991,4.60008,2470.474,2021-9-29T15:45:21Z
2021-09-29T13:47:02Z,42.805,6.029,13.2989,4.60007,2470.45,2021-9-29T15:48:24Z
2021-09-29T13:50:05Z,42.805,6.029,13.2993,4.60007,2470.427,2021-9-29T15:51:28Z
2021-09-29T13:53:09Z,42.805,6.029,13.2990,4.60006,2470.427,2021-9-29T15:54:31Z
2021-09-29T13:56:12Z,42.805,6.029,13.2990,4.60009,2470.474,2021-9-29T15:57:34Z
2021-09-29T13:59:15Z,42.805,6.029,13.2984,4.60007,2470.413,2021-9-29T16:00:37Z
2021-09-29T14:02:18Z,42.805,6.029,13.2991,4.60007,2470.437,2021-9-29T16:03:40Z
2021-09-29T14:05:21Z,42.805,6.029,13.2987,4.60007,2470.45,2021-9-29T16:06:43Z
2021-09-29T14:08:24Z,42.805,6.029,13.2990,4.60007,2470.437,2021-9-29T16:09:46Z
2021-09-29T14:11:27Z,42.805,6.029,13.2991,4.60008,2470.474,2021-9-29T16:12:49Z
2021-09-29T14:14:30Z,42.805,6.029,13.2989,4.60007,2470.46,2021-9-29T16:15:53Z
2021-09-29T14:17:34Z,42.805,6.029,13.2993,4.60007,2470.46,2021-9-29T16:18:56Z
2021-09-29T14:20:37Z,42.805,6.029,13.2990,4.60007,2470.45,2021-9-29T16:21:59Z
2021-09-29T14:23:40Z,42.805,6.029,13.2990,4.60007,2470.437,2021-9-29T16:25:02Z
2021-09-29T14:26:43Z,42.805,6.029,13.2989,4.60008,2470.46,2021-9-29T16:28:05Z
2021-09-29T14:29:46Z,42.805,6.029,13.2987,4.60007,2470.45,2021-9-29T16:31:08Z
2021-09-29T14:32:49Z,42.805,6.029,13.2993,4.60007,2470.45,2021-9-29T16:34:11Z
2021-09-29T14:35:52Z,42.805,6.029,13.2991,4.60008,2470.437,2021-9-29T16:37:14Z
2021-09-29T14:38:55Z,42.805,6.029,13.2990,4.60007,2470.474,2021-9-29T16:40:18Z
2021-09-29T14:41:59Z,42.805,6.029,13.2986,4.60009,2470.46,2021-9-29T16:43:21Z
2021-09-29T14:45:02Z,42.805,6.029,13.2991,4.60007,2470.437,2021-9-29T16:46:24Z
2021-09-29T14:48:05Z,42.805,6.029,13.2990,4.60007,2470.474,2021-9-29T16:49:27Z
2021-09-29T14:51:08Z,42.805,6.029,13.2990,4.60006,2470.45,2021-9-29T16:52:30Z
2021-09-29T14:54:11Z,42.805,6.029,13.2991,4.60008,2470.399,2021-9-29T16:55:33Z
2021-09-29T14:57:14Z,42.805,6.029,13.2993,4.60006,2470.474,2021-9-29T16:58:36Z
2021-09-29T15:00:17Z,42.805,6.029,13.2991,4.60006,2470.39,2021-9-29T17:01:40Z
2021-09-29T15:03:20Z,42.805,6.029,13.2988,4.60006,2470.45,2021-9-29T17:04:43Z
2021-09-29T15:06:24Z,42.805,6.029,13.2993,4.60007,2470.474,2021-9-29T17:07:46Z
2021-09-29T15:09:27Z,42.805,6.029,13.2987,4.60008,2470.437,2021-9-29T17:10:49Z
2021-09-29T15:12:30Z,42.805,6.029,13.2990,4.60010,2470.437,2021-9-29T17:13:52Z
2021-09-29T15:15:33Z,42.805,6.029,13.2989,4.60008,2470.45,2021-9-29T17:16:55Z